Spokane Fairchild, WA

4:35 AM PST on November 20, 2019 (GMT -0800)
Fairchild Air Force Base

Weather History for KSKA - October, 2019

Change the Weather History Date:

Monday, October 21, 2019

  Actual Average Record
Temperature  
Mean Temperature 41 °F -  
Max Temperature 47 °F 53 °F 78 °F (2003)
Min Temperature 35 °F 33 °F 23 °F (1996)
Degree Days  
Heating Degree Days 24    
Moisture  
Dew Point 42 °F    
Average Humidity 100    
Maximum Humidity 100    
Minimum Humidity 100    
Precipitation  
Precipitation 0.21 in - - ()
Sea Level Pressure  
Sea Level Pressure 30.20 in    
Wind  
Wind Speed 5 mph ()    
Max Wind Speed 12 mph    
Max Gust Speed -    
Visibility 8.0 miles    
Events Fog , Rain    
Averages and records for this station are not official NWS values.
T = Trace of Precipitation, MM = Missing Value Source: Averaged Metar Reports

Daily Weather History Graph

Daily Weather History Graph

Search for Another Location

Airport or City:

Astronomy

Oct. 21, 2019 Rise Set
Actual Time 7:18 AM PDT 5:51 PM PDT
Civil Twilight 6:46 AM PDT 6:23 PM PDT
Nautical Twilight 6:10 AM PDT 6:58 PM PDT
Astronomical Twilight 5:35 AM PDT 7:34 PM PDT
Moon 11:58 PM PDT (10/21) 2:54 PM PDT (10/21)
Length of Visible Light 11h 36m
Length of Day
10h 33m
Waning Gibbous, 47% of the Moon is Illuminated
Oct 21
Waning Gibbous
Oct 27
New
Nov 4
First Quarter
Nov 12
Full
Nov 19
Last Quarter

Hourly Weather History & Observations

Time (PDT) Temp. Windchill Dew Point Humidity Pressure Visibility Wind Dir Wind Speed Gust Speed Precip Events Conditions
12:58 AM 39.9 °F 37.8 °F 39.9 °F 100% 30.02 in 10.0 mi South 3.5 mph - N/A   Overcast
1:58 AM 39.4 °F 36.1 °F 39.4 °F 100% 30.04 in 10.0 mi SW 4.6 mph - N/A   Overcast
2:58 AM 36.1 °F 31.4 °F 36.1 °F 100% 30.07 in 10.0 mi SSW 5.8 mph - N/A   Mostly Cloudy
3:58 AM 35.8 °F 30.9 °F 35.8 °F 100% 30.11 in 10.0 mi SSW 5.8 mph - N/A   Scattered Clouds
4:58 AM 35.2 °F - 35.2 °F 100% 30.12 in 10.0 mi Calm Calm - N/A   Clear
5:58 AM 35.6 °F 31.7 °F 35.6 °F 100% 30.15 in 10.0 mi SSW 4.6 mph - N/A   Partly Cloudy
6:37 AM 37.4 °F 34.9 °F 37.4 °F 100% 30.17 in 10.0 mi SW 3.5 mph - N/A   Mostly Cloudy
6:46 AM 37.4 °F - 37.4 °F 100% 30.17 in 3.0 mi Calm Calm - N/A   Scattered Clouds
6:58 AM 36.9 °F - 36.9 °F 100% 30.17 in 2.0 mi Calm Calm - N/A   Scattered Clouds
7:13 AM 35.6 °F 31.7 °F 35.6 °F 100% 30.18 in 0.5 mi South 4.6 mph - N/A Fog Fog
7:41 AM 37.4 °F 32.8 °F 37.4 °F 100% 30.19 in 0.5 mi South 5.8 mph - N/A Fog Fog
7:58 AM 37.2 °F 31.9 °F 37.2 °F 100% 30.19 in 0.5 mi South 6.9 mph - N/A Fog Fog
8:58 AM 38.3 °F 33.9 °F 38.3 °F 100% 30.22 in 0.8 mi South 5.8 mph - N/A Fog Fog
9:03 AM 37.4 °F 32.1 °F 37.4 °F 100% 30.22 in 1.4 mi South 6.9 mph - N/A   Overcast
9:08 AM 37.4 °F 32.1 °F 37.4 °F 100% 30.23 in 1.9 mi South 6.9 mph - N/A   Overcast
9:23 AM 39.2 °F 34.2 °F 39.2 °F 100% 30.23 in 1.9 mi South 6.9 mph - N/A   Overcast
9:28 AM 39.2 °F 33.0 °F 39.2 °F 100% 30.23 in 2.0 mi South 9.2 mph - N/A   Overcast
9:33 AM 39.2 °F 33.0 °F 39.2 °F 100% 30.23 in 3.0 mi South 9.2 mph - N/A   Overcast
9:58 AM 39.2 °F 33.0 °F 39.2 °F 100% 30.23 in 4.0 mi South 9.2 mph - N/A   Overcast
10:18 AM 41.0 °F 34.3 °F 41.0 °F 100% 30.22 in 10.0 mi South 11.5 mph - N/A   Overcast
10:38 AM 41.0 °F 35.8 °F 41.0 °F 100% 30.23 in 10.0 mi SSW 8.1 mph - N/A   Mostly Cloudy
10:48 AM 41.0 °F 35.8 °F 41.0 °F 100% 30.23 in 10.0 mi South 8.1 mph - N/A   Scattered Clouds
10:58 AM 41.7 °F 37.3 °F 41.7 °F 100% 30.24 in 10.0 mi SSW 6.9 mph - N/A   Scattered Clouds
11:58 AM 43.9 °F 39.9 °F 43.9 °F 100% 30.25 in 10.0 mi SSW 6.9 mph - N/A   Clear
12:36 PM 44.6 °F 40.7 °F 44.6 °F 100% 30.25 in 10.0 mi South 6.9 mph - N/A Rain Light Rain
12:40 PM 44.6 °F 39.7 °F 44.6 °F 100% 30.25 in 10.0 mi SSW 9.2 mph - N/A   Partly Cloudy
12:42 PM 46.4 °F 42.9 °F 46.4 °F 100% 30.25 in 10.0 mi South 6.9 mph - N/A Rain Light Rain
12:58 PM 45.5 °F 41.8 °F 45.5 °F 100% 30.24 in 10.0 mi SSW 6.9 mph - 0.00 in Rain Light Rain
1:58 PM 46.6 °F - 46.6 °F 100% 30.24 in 10.0 mi SSW 9.2 mph - 0.00 in Rain Light Rain
2:58 PM 47.1 °F - 47.1 °F 100% 30.24 in 10.0 mi SSW 5.8 mph - 0.01 in Rain Light Rain
4:58 PM 45.1 °F 42.8 °F 45.1 °F 100% 30.24 in 10.0 mi SSE 4.6 mph - 0.03 in Rain Light Rain
5:18 PM 44.6 °F 43.1 °F 44.6 °F 100% 30.24 in 9.0 mi SSE 3.5 mph - N/A Rain Light Rain
5:58 PM 44.8 °F 42.4 °F 44.8 °F 100% 30.23 in 10.0 mi South 4.6 mph - 0.03 in Rain Light Rain
6:08 PM 44.6 °F 42.2 °F 44.6 °F 100% 30.23 in 10.0 mi South 4.6 mph - N/A Rain Light Rain
6:46 PM 44.6 °F 42.2 °F 44.6 °F 100% 30.23 in 10.0 mi South 4.6 mph - N/A Rain Light Rain
6:56 PM 44.6 °F 41.4 °F 44.6 °F 100% 30.22 in 10.0 mi South 5.8 mph - N/A Rain Light Rain
6:58 PM 44.8 °F 41.6 °F 44.8 °F 100% 30.22 in 10.0 mi South 5.8 mph - 0.03 in Rain Light Rain
7:38 PM 44.6 °F 42.2 °F 44.6 °F 100% 30.23 in 10.0 mi South 4.6 mph - N/A Rain Light Rain
7:48 PM 44.6 °F 43.1 °F 44.6 °F 100% 30.23 in 10.0 mi SSE 3.5 mph - N/A Rain Light Rain
7:58 PM 45.0 °F 43.5 °F 45.0 °F 100% 30.23 in 10.0 mi South 3.5 mph - 0.02 in Rain Light Rain
8:18 PM 44.6 °F 42.2 °F 44.6 °F 100% 30.23 in 10.0 mi South 4.6 mph - N/A Rain Light Rain
8:58 PM 45.3 °F 41.6 °F 45.3 °F 100% 30.22 in 10.0 mi SSE 6.9 mph - 0.01 in Rain Light Rain
9:58 PM 45.1 °F 40.8 °F 45.1 °F 100% 30.19 in 10.0 mi SSE 8.1 mph - 0.03 in Rain Light Rain
10:08 PM 44.6 °F 40.2 °F 44.6 °F 100% 30.19 in 10.0 mi SSE 8.1 mph - N/A Rain Light Rain
10:56 PM 44.6 °F 40.2 °F 44.6 °F 100% 30.18 in 10.0 mi South 8.1 mph - N/A   Overcast
10:58 PM 45.3 °F 41.1 °F 45.3 °F 100% 30.18 in 10.0 mi South 8.1 mph - 0.00 in   Overcast
11:07 PM 46.4 °F 41.1 °F 46.4 °F 100% 30.18 in 10.0 mi South 11.5 mph - N/A Rain Light Rain
11:27 PM 46.4 °F 41.5 °F 46.4 °F 100% 30.18 in 10.0 mi South 10.4 mph - N/A Rain Light Rain
11:58 PM 45.7 °F 40.6 °F 45.7 °F 100% 30.17 in 10.0 mi South 10.4 mph - 0.05 in Rain Light Rain